�������l�o���
Date,Time,MP-1(��Sv/h),MP-2(��Sv/h),MP-3(��Sv/h),MP-4(��Sv/h),MP-5(��Sv/h),MP-6(��Sv/h),MP-7(��Sv/h),MP-8(��Sv/h),����,����(m/s),���J
2022/01/10,00:00,0.585,0.886,0.561,1.090,0.753,0.354,0.617,0.587,�k�k��,1.9,��
2022/01/10,00:10,0.586,0.887,0.561,1.089,0.755,0.354,0.614,0.585,�k�k��,2.8,��
2022/01/10,00:20,0.588,0.888,0.561,1.088,0.756,0.353,0.617,0.586,�k�k��,3.1,��
2022/01/10,00:30,0.587,0.887,0.559,1.090,0.757,0.353,0.617,0.583,�k,3.4,��
2022/01/10,00:40,0.587,0.886,0.560,1.091,0.756,0.354,0.616,0.584,�k,4.8,��
2022/01/10,00:50,0.585,0.886,0.560,1.087,0.756,0.354,0.617,0.585,�k,4.9,��
2022/01/10,01:00,0.585,0.888,0.562,1.090,0.756,0.354,0.617,0.585,�k,4.6,��
2022/01/10,01:10,0.586,0.887,0.560,1.088,0.755,0.353,0.616,0.585,�k,5.1,��
2022/01/10,01:20,0.587,0.886,0.561,1.090,0.755,0.353,0.617,0.586,�k,6.1,��
2022/01/10,01:30,0.585,0.885,0.561,1.091,0.756,0.352,0.616,0.584,�k,6.6,��
2022/01/10,01:40,0.586,0.887,0.560,1.088,0.754,0.354,0.617,0.584,�k,7.6,��
2022/01/10,01:50,0.587,0.887,0.561,1.089,0.755,0.353,0.616,0.584,�k,6.7,��
2022/01/10,02:00,0.586,0.888,0.560,1.089,0.755,0.352,0.616,0.584,�k,5.9,��
2022/01/10,02:10,0.587,0.885,0.560,1.089,0.754,0.352,0.617,0.584,�k,5.6,��
2022/01/10,02:20,0.586,0.886,0.559,1.088,0.754,0.353,0.616,0.583,�k�k��,7.1,��
2022/01/10,02:30,0.589,0.886,0.560,1.089,0.755,0.354,0.615,0.585,�k�k��,8.0,��
2022/01/10,02:40,0.586,0.887,0.560,1.090,0.755,0.352,0.617,0.584,�k�k��,7.6,��
2022/01/10,02:50,0.587,0.886,0.561,1.091,0.755,0.354,0.617,0.585,�k�k��,6.3,��
2022/01/10,03:00,0.587,0.887,0.560,1.088,0.754,0.353,0.617,0.584,�k�k��,5.9,��
2022/01/10,03:10,0.585,0.883,0.560,1.089,0.754,0.355,0.616,0.584,�k�k��,6.3,��
2022/01/10,03:20,0.586,0.886,0.560,1.089,0.755,0.354,0.615,0.582,�k�k��,6.9,��
2022/01/10,03:30,0.586,0.886,0.559,1.088,0.753,0.353,0.615,0.583,�k�k��,6.5,��
2022/01/10,03:40,0.585,0.885,0.560,1.090,0.755,0.354,0.615,0.584,�k�k��,7.3,��
2022/01/10,03:50,0.586,0.887,0.560,1.089,0.755,0.352,0.617,0.582,�k�k��,7.8,��
2022/01/10,04:00,0.587,0.887,0.560,1.091,0.754,0.353,0.617,0.581,�k�k��,7.7,��
2022/01/10,04:10,0.587,0.885,0.560,1.088,0.755,0.354,0.616,0.583,�k�k��,8.3,��
2022/01/10,04:20,0.587,0.887,0.559,1.088,0.755,0.354,0.616,0.582,�k�k��,7.8,��
2022/01/10,04:30,0.586,0.885,0.560,1.089,0.755,0.353,0.616,0.583,�k�k��,6.0,��
2022/01/10,04:40,0.588,0.885,0.560,1.088,0.756,0.354,0.616,0.583,�k�k��,6.3,��
2022/01/10,04:50,0.585,0.888,0.560,1.088,0.755,0.353,0.616,0.583,�k�k��,6.4,��
2022/01/10,05:00,0.587,0.885,0.561,1.090,0.753,0.354,0.617,0.584,�k�k��,5.1,��
2022/01/10,05:10,0.586,0.887,0.560,1.091,0.755,0.352,0.616,0.583,�k�k��,4.9,��
2022/01/10,05:20,0.586,0.887,0.560,1.088,0.755,0.353,0.616,0.583,�k,5.0,��
2022/01/10,05:30,0.586,0.885,0.560,1.091,0.757,0.354,0.615,0.584,�k�k��,5.2,��
2022/01/10,05:40,0.587,0.885,0.560,1.088,0.755,0.354,0.617,0.583,�k�k��,4.4,��
2022/01/10,05:50,0.586,0.889,0.561,1.087,0.757,0.353,0.616,0.583,�k,5.1,��
2022/01/10,06:00,0.585,0.886,0.560,1.088,0.753,0.353,0.616,0.583,�k,5.0,��
2022/01/10,06:10,0.585,0.886,0.558,1.090,0.754,0.352,0.617,0.584,�k,5.9,��
2022/01/10,06:20,0.585,0.886,0.561,1.090,0.756,0.352,0.616,0.583,�k,5.7,��
2022/01/10,06:30,0.586,0.888,0.559,1.090,0.756,0.353,0.616,0.583,�k�k��,6.6,��
2022/01/10,06:40,0.586,0.886,0.559,1.090,0.756,0.353,0.616,0.585,�k,6.6,��
2022/01/10,06:50,0.587,0.885,0.560,1.088,0.754,0.351,0.616,0.584,�k,6.8,��
2022/01/10,07:00,0.586,0.886,0.559,1.088,0.755,0.352,0.616,0.583,�k�k��,7.2,��
2022/01/10,07:10,0.585,0.888,0.560,1.089,0.756,0.354,0.615,0.583,�k,6.6,��
2022/01/10,07:20,0.584,0.884,0.559,1.091,0.754,0.353,0.617,0.583,�k�k��,6.5,��
2022/01/10,07:30,0.586,0.888,0.559,1.088,0.755,0.353,0.617,0.583,�k�k��,6.7,��
2022/01/10,07:40,0.586,0.885,0.559,1.090,0.754,0.352,0.617,0.584,�k,5.9,��
2022/01/10,07:50,0.586,0.887,0.560,1.089,0.756,0.352,0.618,0.583,�k�k��,6.3,��
2022/01/10,08:00,0.585,0.889,0.559,1.089,0.756,0.352,0.617,0.584,�k�k��,6.0,��
2022/01/10,08:10,0.586,0.886,0.559,1.087,0.754,0.353,0.617,0.583,�k�k��,5.6,��
2022/01/10,08:20,0.586,0.886,0.559,1.092,0.756,0.354,0.616,0.584,�k�k��,5.9,��
2022/01/10,08:30,0.585,0.884,0.559,1.090,0.754,0.351,0.615,0.584,�k�k��,5.8,��
2022/01/10,08:40,0.585,0.885,0.560,1.089,0.754,0.352,0.616,0.584,�k�k��,5.4,��
2022/01/10,08:50,0.585,0.884,0.559,1.090,0.755,0.352,0.618,0.584,�k�k��,4.5,��
2022/01/10,09:00,0.585,0.885,0.560,1.090,0.755,0.352,0.616,0.584,�k,3.4,��
2022/01/10,09:10,0.585,0.887,0.559,1.088,0.755,0.354,0.617,0.582,�k,3.3,��
2022/01/10,09:20,0.586,0.885,0.559,1.089,0.754,0.353,0.617,0.584,�k,3.6,��
2022/01/10,09:30,0.586,0.887,0.560,1.089,0.756,0.352,0.617,0.583,�k�k��,2.8,��
2022/01/10,09:40,0.585,0.888,0.559,1.089,0.756,0.352,0.617,0.584,�k�k��,3.9,��
2022/01/10,09:50,0.585,0.886,0.560,1.088,0.757,0.353,0.618,0.584,�k,4.9,��
2022/01/10,10:00,0.586,0.886,0.560,1.089,0.756,0.352,0.616,0.583,�k,3.7,��
2022/01/10,10:10,0.585,0.885,0.559,1.090,0.757,0.353,0.615,0.584,�k,5.0,��
2022/01/10,10:20,0.587,0.886,0.561,1.089,0.755,0.353,0.614,0.582,�k,5.4,��
2022/01/10,10:30,0.586,0.886,0.557,1.090,0.756,0.353,0.616,0.583,�k,4.1,��
2022/01/10,10:40,0.586,0.888,0.560,1.090,0.757,0.353,0.615,0.584,�k,4.7,��
2022/01/10,10:50,0.585,0.883,0.559,1.090,0.757,0.353,0.614,0.584,�k,5.9,��
2022/01/10,11:00,0.587,0.886,0.558,1.088,0.756,0.351,0.615,0.584,�k,5.7,��
2022/01/10,11:10,0.586,0.887,0.559,1.089,0.756,0.353,0.614,0.584,�k,6.3,��
2022/01/10,11:20,0.587,0.887,0.560,1.087,0.756,0.352,0.614,0.584,�k�k��,5.2,��
2022/01/10,11:30,0.585,0.888,0.560,1.090,0.758,0.352,0.614,0.585,�k�k��,5.9,��
2022/01/10,11:40,0.587,0.886,0.560,1.089,0.756,0.354,0.615,0.583,�k�k��,6.9,��
2022/01/10,11:50,0.586,0.886,0.560,1.090,0.757,0.352,0.614,0.584,�k�k��,5.6,��
2022/01/10,12:00,0.587,0.886,0.558,1.090,0.758,0.354,0.615,0.583,�k�k��,5.9,��
2022/01/10,12:10,0.586,0.886,0.559,1.089,0.758,0.353,0.616,0.583,�k�k��,6.8,��
2022/01/10,12:20,0.585,0.886,0.560,1.091,0.756,0.353,0.614,0.583,�k�k��,7.3,��
2022/01/10,12:30,0.586,0.886,0.561,1.089,0.758,0.352,0.616,0.582,�k�k��,7.2,��
2022/01/10,12:40,0.586,0.886,0.560,1.088,0.757,0.354,0.616,0.583,�k�k��,6.1,��
2022/01/10,12:50,0.588,0.886,0.560,1.091,0.758,0.353,0.616,0.586,�k�k��,6.1,��
2022/01/10,13:00,0.586,0.885,0.560,1.090,0.757,0.353,0.616,0.583,�k�k��,5.6,��
2022/01/10,13:10,0.589,0.885,0.560,1.093,0.758,0.352,0.617,0.585,�k�k��,5.8,��
2022/01/10,13:20,0.587,0.883,0.559,1.089,0.757,0.352,0.618,0.583,�k�k��,6.4,��
2022/01/10,13:30,0.587,0.884,0.559,1.089,0.757,0.354,0.617,0.583,�k�k��,6.8,��
2022/01/10,13:40,0.587,0.885,0.559,1.090,0.757,0.354,0.618,0.583,�k�k��,5.5,��
2022/01/10,13:50,0.589,0.886,0.560,1.092,0.757,0.354,0.616,0.583,�k�k��,4.3,��
2022/01/10,14:00,0.587,0.885,0.561,1.090,0.758,0.353,0.617,0.583,�k�k��,5.6,��
2022/01/10,14:10,0.588,0.885,0.559,1.089,0.757,0.353,0.617,0.582,�k�k��,6.0,��
2022/01/10,14:20,0.587,0.884,0.559,1.090,0.757,0.355,0.617,0.581,�k�k��,5.7,��
2022/01/10,14:30,0.588,0.886,0.559,1.090,0.755,0.352,0.617,0.581,�k�k��,6.5,��
2022/01/10,14:40,0.587,0.885,0.560,1.091,0.758,0.354,0.617,0.584,�k�k��,6.1,��
2022/01/10,14:50,0.587,0.885,0.560,1.092,0.757,0.353,0.616,0.584,�k�k��,6.4,��
2022/01/10,15:00,0.588,0.884,0.558,1.089,0.757,0.353,0.617,0.583,�k�k��,5.2,��
2022/01/10,15:10,0.588,0.888,0.561,1.089,0.756,0.353,0.616,0.584,�k,5.4,��
2022/01/10,15:20,0.588,0.887,0.559,1.089,0.758,0.353,0.617,0.583,�k,5.5,��
2022/01/10,15:30,0.587,0.886,0.559,1.088,0.757,0.353,0.616,0.583,�k,4.5,��
2022/01/10,15:40,0.587,0.887,0.560,1.091,0.758,0.354,0.617,0.584,�k,5.7,��
2022/01/10,15:50,0.588,0.889,0.561,1.088,0.758,0.354,0.617,0.583,�k,5.2,��
2022/01/10,16:00,0.587,0.885,0.560,1.090,0.757,0.353,0.618,0.585,�k,4.4,��
2022/01/10,16:10,0.585,0.887,0.561,1.091,0.757,0.354,0.616,0.584,�k,5.7,��
2022/01/10,16:20,0.588,0.886,0.560,1.091,0.757,0.353,0.617,0.582,�k�k��,6.0,��
2022/01/10,16:30,0.588,0.887,0.560,1.089,0.758,0.352,0.617,0.585,�k,5.9,��
2022/01/10,16:40,0.588,0.888,0.559,1.089,0.759,0.353,0.617,0.582,�k�k��,5.9,��
2022/01/10,16:50,0.586,0.889,0.560,1.089,0.757,0.353,0.617,0.583,�k�k��,5.7,��
2022/01/10,17:00,0.585,0.885,0.559,1.088,0.756,0.351,0.616,0.583,�k�k��,5.7,��
2022/01/10,17:10,0.588,0.887,0.558,1.089,0.757,0.354,0.616,0.585,�k�k��,5.6,��
2022/01/10,17:20,0.583,0.886,0.559,1.090,0.758,0.353,0.615,0.583,�k�k��,6.4,��
2022/01/10,17:30,0.585,0.887,0.560,1.088,0.757,0.354,0.616,0.585,�k�k��,6.0,��
2022/01/10,17:40,0.586,0.888,0.560,1.088,0.755,0.353,0.616,0.581,�k�k��,3.8,��
2022/01/10,17:50,0.584,0.885,0.560,1.088,0.758,0.352,0.616,0.585,�k�k��,5.7,��
2022/01/10,18:00,0.584,0.887,0.558,1.089,0.757,0.352,0.615,0.583,�k�k��,5.0,��
2022/01/10,18:10,0.585,0.886,0.560,1.090,0.754,0.354,0.615,0.583,�k��,5.0,��
2022/01/10,18:20,0.586,0.887,0.559,1.090,0.757,0.353,0.615,0.583,�k��,5.9,��
2022/01/10,18:30,0.587,0.885,0.559,1.089,0.755,0.352,0.616,0.583,�k��,5.8,��
2022/01/10,18:40,0.585,0.887,0.558,1.088,0.757,0.353,0.616,0.583,�k��,5.8,��
2022/01/10,18:50,0.585,0.886,0.560,1.088,0.757,0.353,0.615,0.583,�k��,6.1,��
2022/01/10,19:00,0.586,0.886,0.559,1.088,0.756,0.352,0.616,0.582,�k�k��,5.8,��
2022/01/10,19:10,0.585,0.885,0.559,1.087,0.756,0.353,0.617,0.582,�k��,6.1,��
2022/01/10,19:20,0.586,0.886,0.560,1.090,0.756,0.353,0.616,0.583,�k��,5.5,��
2022/01/10,19:30,0.585,0.887,0.559,1.088,0.757,0.353,0.616,0.584,�k��,5.5,��
2022/01/10,19:40,0.586,0.886,0.559,1.090,0.756,0.353,0.615,0.582,�k��,5.0,��
2022/01/10,19:50,0.585,0.888,0.559,1.087,0.756,0.351,0.616,0.584,�k��,4.7,��
2022/01/10,20:00,0.584,0.887,0.558,1.089,0.756,0.353,0.616,0.583,�k��,4.4,��
2022/01/10,20:10,0.583,0.886,0.558,1.092,0.755,0.352,0.616,0.581,�k��,4.3,��
2022/01/10,20:20,0.584,0.887,0.558,1.090,0.756,0.352,0.613,0.582,�k��,4.6,��
2022/01/10,20:30,0.583,0.885,0.560,1.089,0.756,0.353,0.615,0.582,�k��,4.1,��
2022/01/10,20:40,0.584,0.886,0.558,1.089,0.755,0.352,0.615,0.583,�k��,4.6,��
2022/01/10,20:50,0.585,0.887,0.559,1.091,0.756,0.352,0.614,0.584,�k��,3.8,��
2022/01/10,21:00,0.585,0.887,0.558,1.090,0.757,0.351,0.615,0.583,�k��,4.0,��
2022/01/10,21:10,0.584,0.887,0.558,1.091,0.755,0.352,0.615,0.583,���k��,4.0,��
2022/01/10,21:20,0.584,0.886,0.559,1.091,0.753,0.353,0.613,0.581,�k��,4.0,��
2022/01/10,21:30,0.584,0.887,0.558,1.090,0.755,0.351,0.616,0.582,�k��,3.7,��
2022/01/10,21:40,0.584,0.887,0.558,1.091,0.756,0.352,0.615,0.583,���k��,3.2,��
2022/01/10,21:50,0.586,0.885,0.558,1.089,0.756,0.352,0.614,0.583,���k��,3.1,��
2022/01/10,22:00,0.586,0.887,0.558,1.087,0.755,0.353,0.614,0.583,���k��,3.2,��
2022/01/10,22:10,0.585,0.886,0.558,1.090,0.757,0.352,0.614,0.582,�k��,2.6,��
2022/01/10,22:20,0.584,0.887,0.560,1.091,0.755,0.353,0.614,0.582,�k��,3.4,��
2022/01/10,22:30,0.583,0.884,0.556,1.090,0.755,0.353,0.614,0.581,�k��,3.8,��
2022/01/10,22:40,0.585,0.886,0.559,1.088,0.755,0.353,0.616,0.584,�k��,3.6,��
2022/01/10,22:50,0.584,0.887,0.558,1.090,0.754,0.352,0.615,0.584,�k��,3.7,��
2022/01/10,23:00,0.585,0.888,0.556,1.092,0.755,0.353,0.613,0.583,�k��,3.4,��
2022/01/10,23:10,0.584,0.889,0.559,1.091,0.757,0.353,0.615,0.583,�k��,3.7,��
2022/01/10,23:20,0.585,0.887,0.557,1.089,0.755,0.352,0.615,0.585,�k��,3.5,��
2022/01/10,23:30,0.584,0.884,0.559,1.090,0.754,0.352,0.614,0.583,�k��,4.1,��
2022/01/10,23:40,0.583,0.887,0.559,1.090,0.755,0.352,0.614,0.583,�k��,3.2,��
2022/01/10,23:50,0.583,0.886,0.558,1.092,0.755,0.352,0.614,0.584,�k��,3.1,��
